Location: Westminster
(33.3626°N, 96.4619°W)
Time: 13:33:50
(UTC+00:00)

Cosmos 1763 Rocket - Pass Details

Date: 11 July 2022
Orbit: 732 x 780 km, 74.0° (Epoch: 18 August)

Event Time Altitude Azimuth Distance (km) Brightness Sun altitude
Exits shadow 05:01:06 15° 56° (NE) 2,000 5.7 -30.5°
Drops below altitude 10° 05:02:14 10° 46° (NE) 2,317 6.2 -30.6°
Sets 05:05:02 0° 33° (NNE) 3,254 7.2 -30.8°
